Location: Unspecified
(0.0000°N, 0.0000°E)
Time: 06:10:08
(UTC+00:00)

Tiros 1 - Pass Details

Date: 07 October 2020
Orbit: 630 x 663 km, 48.4° (Epoch: 28 October)

Event Time Altitude Azimuth Distance (km) Brightness Sun altitude
Rises 08:27:04 0° 226° (SW) 2,912 10.2 39.6°
Reaches altitude 10° 08:29:25 10° 230° (SW) 2,002 9.5 40.2°
Maximum altitude 08:33:56 57° 309° (NW) 739 7.7 41.3°
Drops below altitude 10° 08:38:27 10° 27° (NNE) 1,999 10.0 42.4°
Sets 08:40:48 0° 32° (NNE) 2,907 10.7 43.0°
